Simultaneous Nadir Overpasses (SNOs) Predictions

Prediction of SNOs between GOES-16 and AQUA Satellite Orbit:

Table of predicted SNOs for the next 14.0 days since TLE Epoch: 2/27/2021
Index Date Time (GOES-16) GOES-16 Lat,Lon AQUA Lat,Lon Distance(km) Time Diff (sec)
1 02/27/2021 06:17:22 -0.03, -75.20 -0.92, -70.91 486.62 80
2 02/27/2021 18:38:45 0.02, -75.20 -0.17, -76.11 103.33 80
3 03/01/2021 18:29:15 0.02, -75.20 0.49, -73.15 233.88 80
4 03/02/2021 06:50:29 -0.02, -75.21 0.67, -78.30 351.91 80
5 03/04/2021 06:38:18 -0.02, -75.22 0.01, -75.35 14.46 80
6 03/06/2021 06:23:26 -0.02, -75.23 -0.59, -72.38 323.33 80
7 03/06/2021 18:44:50 0.02, -75.23 -0.49, -77.57 266.90 80
8 03/08/2021 18:35:18 -0.00, -75.25 0.12, -74.61 71.89 80
9 03/10/2021 18:23:07 -0.00, -75.27 0.79, -71.66 411.14 80
10 03/11/2021 06:44:23 0.00, -75.29 0.30, -76.82 173.57 80
